Vorticity
1 1 3 4 3 4 3 5 8 2 3 2 5 2 3 4 4 2 7 6 2 3 3 3 3 2 3 3 3 3 2 4 14 14 14 16 12 2 7 -0 -8 -10 -9 -6 -1 -1 6 10 7
2 2 1 2 3 4 1 -1 3 3 11 7 1 2 4 4 3 2 6 2 3 3 3 2 2 2 2 2 3 3 4 4 12 19 10 12 17 16 6 7 6 14 18 16 6 10 26 16 18
2 3 2 3 4 4 1 5 4 5 2 5 11 6 4 5 5 3 4 5 3 3 4 3 2 3 2 2 3 3 4 4 11 11 7 18 11 9 8 1 2 -3 -11 -6 4 -8 -4 -1 -7
4 3 3 6 7 1 3 4 8 6 5 2 4 6 9 9 5 3 2 2 3 4 5 4 3 3 2 3 3 4 4 5 10 2 7 10 13 13 12 11 7 3 5 8 -1 -0 6 6 2
3 3 2 4 8 10 4 7 6 3 3 3 2 2 3 4 7 9 7 6 5 5 5 3 3 3 3 3 4 4 4 4 4 4 6 9 8 8 6 16 18 15 6 3 3 11 -5 -15 -8
3 4 4 4 6 5 12 5 7 6 3 4 4 4 3 3 3 4 5 8 8 7 8 8 7 6 6 7 7 5 5 4 4 3 2 3 5 6 1 11 8 15 18 14 6 5 8 2 -1
6 4 4 5 6 9 12 12 5 8 8 6 5 3 5 7 4 3 4 4 5 4 5 7 9 7 7 8 7 6 5 4 4 4 3 1 5 1 2 4 3 15 17 15 11 12 10 2 6
6 3 5 6 9 12 9 9 9 4 -0 7 5 5 5 7 6 5 5 4 3 3 3 3 5 5 5 4 5 4 5 4 5 5 4 4 1 2 3 -1 1 5 1 1 11 11 6 14 13
2 6 5 10 7 7 5 6 11 6 6 6 6 4 7 7 7 6 7 8 8 6 4 4 5 4 5 5 5 4 4 3 4 5 6 5 5 4 2 2 2 4 6 3 7 6 26 8 -2
7 10 14 15 8 8 8 12 11 11 6 7 6 7 5 5 6 7 6 5 6 7 7 7 6 5 5 5 3 3 5 5 6 6 5 5 4 4 5 4 3 3 4 5 8 -0 -0 9 -2
6 9 3 7 8 6 11 11 11 15 11 5 7 4 6 4 5 6 6 5 5 5 7 5 6 5 5 5 5 3 5 5 5 5 5 5 5 5 4 4 4 4 4 2 2 5 5 -2 1
5 10 7 9 6 5 8 9 6 6 13 7 7 6 7 7 6 4 5 6 7 6 6 7 6 5 6 5 5 4 3 3 5 5 5 6 6 6 5 4 3 3 3 3 3 3 4 5 6
9 7 6 6 7 8 6 7 6 5 9 10 7 9 11 10 5 5 4 4 6 7 7 6 6 6 6 8 6 6 5 5 4 4 4 5 6 6 5 6 6 6 5 5 4 4 4 4 5
9 8 11 8 12 8 6 5 5 9 7 8 8 7 8 7 10 10 11 11 8 6 7 7 7 6 8 8 5 6 6 5 4 4 3 4 5 5 7 7 6 6 5 6 6 6 6 4 4
3 1 3 9 11 11 11 12 11 4 3 3 5 7 5 6 8 9 11 11 10 9 8 7 6 8 8 8 7 7 7 6 6 5 4 4 5 5 4 5 6 6 6 5 6 7 7 6 5
2 6 6 12 8 3 1 -3 13 11 12 10 9 10 6 7 3 3 3 5 8 10 11 10 9 8 8 7 8 8 9 6 6 7 6 5 6 6 6 5 5 5 6 6 6 5 6 8 8
9 8 9 11 7 1 6 10 16 16 11 10 13 15 15 15 12 9 7 6 4 4 6 8 8 9 10 9 9 9 8 7 5 5 5 5 5 5 5 5 5 5 5 5 6 6 7 6 6
13 10 4 5 5 9 10 11 8 2 8 16 11 8 7 8 12 17 16 13 10 8 6 5 6 8 10 11 11 10 8 6 5 6 6 6 6 5 5 5 5 5 5 5 5 6 6 6 6
11 9 11 9 13 8 7 9 8 18 13 6 8 8 18 19 15 17 15 16 16 13 10 8 7 7 5 7 8 9 7 6 6 6 9 8 8 6 8 10 6 5 5 5 6 6 5 6 5
13 13 13 11 11 10 12 13 10 8 7 5 13 9 9 9 9 10 11 10 11 15 15 12 10 8 7 8 7 7 8 9 10 7 2 10 11 4 0 3 5 5 6 5 5 6 6 6 7
27 24 22 20 16 20 16 9 10 6 9 10 6 7 10 10 13 7 11 9 11 12 11 11 12 13 13 11 10 9 7 7 8 4 6 8 9 10 9 9 8 7 7 6 4 4 5 6 7
12 12 8 5 4 4 5 10 7 7 6 7 7 1 1 4 5 6 7 7 6 6 7 8 7 7 6 6 7 6 8 9 10 10 10 8 7 7 7 8 8 7 7 8 7 5 5 5 7
3 2 5 6 9 11 10 18 4 7 6 5 5 2 4 3 2 5 6 5 5 7 7 6 6 7 8 8 7 7 6 6 5 4 3 4 6 8 8 7 6 5 5 6 7 7 7 5 6
15 14 11 6 5 8 -3 0 0 1 -0 -0 6 5 8 10 9 7 6 7 6 5 2 0 4 5 6 8 7 7 6 9 8 8 8 7 6 5 4 4 4 5 6 6 7 7 5 7 7
-1 -1 5 7 7 11 8 15 20 22 19 12 8 5 8 8 11 10 12 12 11 12 13 12 9 5 7 6 6 9 11 10 9 10 9 8 8 9 9 10 10 11 12 10 10 11 10 9 8
12 5 4 3 3 8 6 8 9 2 4 5 3 5 8 12 14 14 12 14 17 18 19 19 16 13 13 11 12 17 10 9 8 7 7 7 8 10 11 12 11 9 2 2 7 12 6 -0 10
10 12 11 8 3 2 7 6 5 5 4 5 10 12 13 13 14 14 14 14 12 13 16 18 20 20 19 17 18 13 12 11 9 9 8 7 6 8 10 11 11 13 18 15 6 -0 5 11 24
4 5 9 8 9 8 6 7 5 9 14 16 14 15 17 15 13 13 15 15 18 17 15 15 15 16 15 16 17 17 12 26 24 18 18 15 10 13 11 9 8 12 20 14 15 17 11 13 12
13 13 10 7 10 8 6 8 7 14 20 14 16 18 17 17 12 11 15 11 6 3 6 8 8 9 15 7 7 14 4 4 1 11 13 5 10 23 20 16 16 15 14 14 22 24 23 27 23
12 10 11 10 10 9 6 9 14 13 12 13 12 10 14 11 10 7 5 -1 -5 18 19 7 17 -0 4 3 23 30 13 4 1 -3 0 6 22 12 10 10 8 9 12 8 11 7 6 12 13
Height
5795 5794 5793 5795 5798 5797 5797 5797 5795 5794 5794 5795 5798 5798 5801 5799 5801 5805 5804 5805 5805 5806 5807 5808 5809 5809 5809 5810 5810 5810 5810 5810 5810 5809 5811 5814 5817 5820 5822 5824 5827 5829 5830 5830 5830 5832 5833 5835 5836
5790 5789 5789 5789 5793 5793 5795 5793 5792 5790 5792 5794 5794 5795 5796 5795 5799 5800 5800 5801 5802 5803 5804 5805 5805 5806 5807 5807 5807 5808 5808 5808 5808 5808 5809 5811 5813 5816 5818 5822 5822 5826 5826 5827 5828 5830 5831 5834 5836
5784 5783 5784 5783 5787 5790 5790 5788 5788 5788 5788 5789 5790 5790 5791 5795 5796 5794 5794 5797 5798 5799 5800 5801 5802 5803 5804 5804 5805 5805 5806 5807 5807 5808 5809 5810 5812 5814 5817 5819 5820 5823 5824 5826 5828 5830 5833 5833 5835
5779 5778 5779 5777 5781 5785 5784 5784 5783 5781 5783 5784 5784 5786 5788 5789 5791 5791 5790 5791 5795 5794 5796 5797 5797 5798 5800 5800 5801 5803 5804 5806 5806 5807 5807 5808 5810 5813 5814 5816 5818 5820 5822 5824 5827 5829 5831 5831 5833
5772 5772 5771 5772 5776 5777 5777 5777 5771 5777 5776 5777 5777 5780 5784 5783 5784 5786 5785 5787 5789 5790 5791 5792 5793 5793 5795 5797 5797 5798 5801 5803 5804 5805 5806 5807 5808 5810 5812 5814 5815 5817 5819 5822 5824 5825 5828 5829 5830
5766 5766 5765 5766 5769 5770 5771 5770 5768 5768 5770 5769 5773 5771 5778 5778 5778 5780 5781 5782 5783 5785 5785 5787 5788 5789 5790 5793 5793 5794 5797 5798 5801 5802 5802 5803 5805 5806 5808 5810 5812 5814 5816 5818 5820 5822 5823 5825 5827
5760 5757 5757 5758 5765 5766 5766 5761 5760 5762 5764 5763 5764 5766 5769 5774 5772 5774 5776 5777 5778 5779 5781 5782 5783 5785 5785 5788 5789 5790 5792 5794 5797 5797 5798 5799 5801 5803 5805 5807 5808 5810 5811 5814 5815 5818 5820 5823 5824
5753 5747 5749 5756 5758 5758 5757 5752 5751 5753 5754 5756 5756 5761 5764 5768 5766 5766 5769 5771 5773 5774 5775 5777 5779 5780 5781 5783 5785 5785 5787 5788 5791 5792 5795 5798 5800 5801 5802 5803 5805 5808 5810 5809 5811 5815 5817 5820 5821
5743 5740 5743 5753 5746 5748 5746 5744 5746 5746 5745 5747 5748 5755 5756 5759 5759 5760 5763 5764 5766 5767 5769 5770 5773 5775 5775 5778 5780 5781 5782 5782 5787 5789 5792 5793 5795 5797 5799 5801 5802 5804 5807 5808 5811 5812 5814 5816 5819
5734 5733 5737 5739 5736 5735 5738 5735 5740 5740 5740 5741 5743 5745 5745 5748 5750 5753 5754 5756 5759 5760 5762 5764 5767 5768 5770 5771 5773 5774 5777 5779 5781 5784 5787 5788 5789 5792 5794 5796 5798 5800 5802 5804 5807 5809 5810 5812 5815
5727 5725 5728 5727 5727 5725 5728 5729 5730 5731 5733 5737 5731 5732 5736 5739 5742 5744 5746 5747 5749 5752 5754 5757 5759 5761 5763 5764 5766 5767 5770 5773 5775 5777 5780 5782 5785 5787 5789 5791 5793 5795 5796 5799 5801 5803 5806 5809 5812
5713 5717 5719 5719 5717 5716 5720 5719 5720 5720 5728 5727 5723 5722 5732 5729 5732 5734 5737 5739 5741 5743 5746 5749 5750 5752 5754 5757 5758 5760 5763 5765 5769 5771 5773 5775 5778 5780 5782 5785 5787 5789 5791 5793 5795 5797 5800 5803 5806
5702 5709 5707 5709 5708 5709 5708 5711 5711 5711 5718 5717 5715 5714 5721 5723 5722 5726 5728 5730 5733 5735 5737 5740 5742 5744 5746 5748 5750 5752 5754 5758 5760 5763 5765 5768 5770 5773 5775 5778 5781 5783 5785 5787 5789 5791 5793 5795 5797
5695 5695 5698 5697 5699 5699 5698 5701 5698 5708 5706 5706 5707 5708 5710 5711 5713 5715 5718 5721 5723 5724 5728 5730 5733 5736 5738 5740 5741 5745 5748 5749 5752 5754 5757 5759 5762 5764 5767 5770 5772 5774 5777 5779 5781 5783 5786 5788 5790
5685 5683 5685 5687 5690 5685 5685 5686 5693 5695 5693 5697 5698 5697 5701 5701 5703 5706 5707 5710 5714 5715 5716 5720 5723 5727 5729 5731 5733 5737 5739 5741 5743 5746 5748 5751 5753 5755 5758 5760 5762 5765 5768 5771 5773 5776 5778 5781 5783
5672 5669 5671 5679 5677 5677 5674 5678 5683 5679 5684 5686 5686 5685 5690 5690 5693 5695 5697 5698 5702 5706 5707 5709 5712 5715 5718 5721 5724 5726 5729 5732 5734 5737 5739 5742 5744 5747 5749 5751 5754 5756 5758 5761 5764 5767 5770 5773 5775
5657 5661 5662 5661 5660 5661 5667 5667 5670 5668 5672 5672 5673 5674 5675 5678 5681 5683 5686 5687 5690 5694 5697 5698 5701 5704 5707 5710 5713 5716 5719 5722 5725 5727 5730 5732 5734 5737 5739 5741 5744 5747 5749 5752 5754 5757 5760 5763 5765
5649 5644 5645 5645 5645 5648 5653 5656 5658 5657 5659 5660 5661 5663 5663 5665 5667 5669 5674 5677 5678 5681 5684 5687 5689 5692 5696 5699 5702 5705 5709 5712 5714 5717 5719 5721 5724 5726 5729 5732 5735 5738 5740 5742 5744 5747 5749 5752 5755
5631 5632 5633 5634 5632 5634 5637 5642 5646 5646 5647 5649 5647 5648 5654 5658 5659 5659 5661 5663 5665 5668 5672 5674 5677 5680 5683 5687 5690 5692 5695 5698 5702 5705 5707 5710 5713 5716 5718 5721 5724 5726 5729 5732 5734 5737 5739 5742 5745
5618 5619 5623 5622 5621 5620 5626 5631 5633 5636 5634 5637 5640 5640 5641 5643 5648 5650 5650 5652 5654 5657 5660 5662 5664 5668 5671 5674 5677 5679 5683 5686 5690 5693 5695 5698 5700 5704 5707 5709 5712 5716 5718 5721 5723 5726 5728 5731 5734
5605 5606 5607 5608 5609 5613 5612 5618 5622 5622 5625 5629 5630 5632 5632 5631 5632 5640 5640 5640 5643 5646 5649 5652 5654 5656 5658 5661 5663 5667 5670 5674 5677 5679 5681 5684 5687 5690 5694 5697 5700 5703 5706 5709 5711 5714 5717 5719 5722
5595 5597 5597 5597 5598 5601 5604 5604 5609 5611 5615 5617 5619 5620 5622 5622 5623 5626 5628 5631 5631 5634 5637 5640 5642 5645 5646 5648 5651 5654 5656 5659 5661 5665 5668 5671 5674 5676 5679 5683 5686 5689 5693 5695 5698 5701 5704 5706 5709
5588 5588 5588 5587 5588 5590 5593 5591 5597 5598 5601 5604 5605 5607 5608 5609 5611 5613 5615 5617 5619 5622 5624 5626 5628 5630 5632 5635 5637 5639 5642 5645 5648 5651 5653 5655 5658 5661 5664 5667 5670 5674 5677 5680 5683 5686 5689 5692 5694
5576 5577 5576 5576 5577 5577 5584 5582 5583 5584 5589 5588 5590 5591 5592 5593 5594 5597 5599 5602 5604 5607 5610 5612 5614 5615 5617 5619 5621 5623 5626 5630 5632 5634 5637 5640 5642 5645 5648 5651 5654 5658 5661 5663 5666 5669 5672 5676 5679
5564 5565 5563 5564 5565 5568 5569 5568 5574 5572 5574 5574 5574 5575 5577 5577 5578 5579 5581 5584 5586 5588 5592 5596 5597 5598 5601 5602 5604 5607 5612 5613 5615 5617 5620 5623 5625 5628 5631 5634 5637 5640 5642 5645 5648 5651 5654 5657 5660
5549 5551 5552 5551 5553 5555 5556 5554 5557 5557 5559 5560 5561 5561 5560 5561 5562 5564 5565 5567 5569 5570 5573 5576 5579 5581 5583 5585 5587 5592 5594 5596 5597 5599 5602 5606 5609 5611 5613 5616 5618 5621 5624 5626 5629 5632 5636 5639 5642
5539 5539 5541 5540 5542 5541 5546 5544 5544 5544 5545 5545 5546 5546 5546 5547 5547 5548 5550 5551 5553 5555 5557 5559 5562 5564 5567 5569 5572 5575 5576 5579 5582 5584 5587 5589 5591 5594 5596 5598 5601 5604 5607 5609 5612 5614 5617 5620 5623
5524 5526 5526 5528 5529 5529 5532 5530 5531 5531 5531 5532 5531 5531 5531 5532 5533 5533 5534 5536 5538 5540 5542 5545 5547 5550 5552 5554 5558 5559 5562 5564 5567 5570 5572 5573 5575 5579 5580 5582 5584 5587 5589 5592 5594 5596 5599 5602 5604
5513 5512 5513 5516 5516 5517 5518 5520 5518 5516 5516 5515 5516 5518 5518 5518 5518 5519 5520 5522 5524 5526 5528 5531 5533 5536 5539 5541 5543 5545 5548 5550 5553 5555 5555 5558 5561 5562 5564 5565 5568 5571 5573 5576 5578 5579 5582 5584 5586
5499 5500 5501 5500 5505 5505 5505 5508 5508 5506 5505 5503 5504 5505 5506 5506 5506 5507 5509 5509 5510 5512 5515 5517 5518 5522 5524 5527 5529 5531 5533 5535 5537 5538 5539 5541 5544 5547 5549 5550 5553 5555 5558 5561 5564 5565 5567 5569 5571